Denver, CO

9:01 PM MDT on October 17, 2017 (GMT -0600)
Denver International

Weather History for KDEN - November, 2013

Change the Weather History Date:

Wednesday, November 20, 2013

  Actual Average Record
Temperature  
Mean Temperature 42 °F 36 °F  
Max Temperature 59 °F 50 °F 72 °F (1897)
Min Temperature 25 °F 22 °F 1 °F (1975)
Degree Days  
Heating Degree Days 23 29  
Month to date heating degree days 415 490  
Since 1 July heating degree days 1023 1071  
Cooling Degree Days 0 0  
Month to date cooling degree days 0 0  
Year to date cooling degree days 999 769  
Moisture  
Dew Point 24 °F    
Average Humidity 48    
Maximum Humidity 72    
Minimum Humidity 24    
Precipitation  
Precipitation T in 0.02 in 0.95 in (1979)
Month to date precipitation 0.03 0.45  
Year to date precipitation 17.11 13.79  
Snow  
Snow T in - - ()
Month to date snowfall T  
Since 1 July snowfall 1.4  
Since 1 September snowfall 1.4  
Snow Depth 0.00 in    
Sea Level Pressure  
Sea Level Pressure 29.77 in    
Wind  
Wind Speed 7 mph (ESE)    
Max Wind Speed 31 mph    
Max Gust Speed 38 mph    
Visibility 10 miles    
Events Snow    
T = Trace of Precipitation, MM = Missing Value Source: NWS Daily Summary

Daily Weather History Graph

Daily Weather History Graph

Search for Another Location

Airport or City:

Trip Planner

Search our weather history database for the weather conditions in past years. The results will help you decide how hot, cold, wet, or windy it might be!

Date:

Astronomy

Nov. 20, 2013 Rise Set
Actual Time 6:49 AM MST 4:38 PM MST
Civil Twilight 6:20 AM MST 5:08 PM MST
Nautical Twilight 5:47 AM MST 5:41 PM MST
Astronomical Twilight 5:15 AM MST 6:13 PM MST
Moon 7:24 PM MST (11/20) 9:16 AM MST (11/20)
Length of Visible Light 10h 48m
Length of Day
9h 49m
Waning Gibbous, 91% of the Moon is Illuminated
Nov 20
Waning Gibbous
Nov 25
Last Quarter
Dec 2
New
Dec 9
First Quarter
Dec 17
Full

Hourly Weather History & Observations

Time (MST) Temp. Windchill Dew Point Humidity Pressure Visibility Wind Dir Wind Speed Gust Speed Precip Events Conditions
12:53 AM 45.0 °F - 24.1 °F 44% 29.68 in 10.0 mi Calm Calm - N/A   Overcast
1:53 AM 43.0 °F 39.5 °F 25.0 °F 49% 29.70 in 10.0 mi SSE 5.8 mph - N/A   Mostly Cloudy
2:53 AM 39.0 °F 35.7 °F 24.1 °F 55% 29.71 in 10.0 mi SSE 4.6 mph - N/A   Scattered Clouds
3:53 AM 44.1 °F 41.5 °F 26.1 °F 49% 29.70 in 10.0 mi West 4.6 mph - N/A   Scattered Clouds
4:53 AM 39.0 °F 34.8 °F 23.0 °F 53% 29.73 in 10.0 mi SSW 5.8 mph - N/A   Scattered Clouds
5:53 AM 37.9 °F 32.7 °F 23.0 °F 55% 29.75 in 10.0 mi SSW 6.9 mph - N/A   Scattered Clouds
6:53 AM 41.0 °F 37.1 °F 23.0 °F 49% 29.76 in 10.0 mi SSW 5.8 mph - N/A   Partly Cloudy
7:53 AM 42.1 °F 38.4 °F 24.1 °F 49% 29.78 in 10.0 mi SSW 5.8 mph - N/A   Partly Cloudy
8:53 AM 51.1 °F - 25.0 °F 36% 29.75 in 10.0 mi SSW 6.9 mph - N/A   Scattered Clouds
9:53 AM 54.0 °F - 24.1 °F 31% 29.74 in 10.0 mi Calm Calm - N/A   Scattered Clouds
10:53 AM 57.0 °F - 25.0 °F 29% 29.72 in 10.0 mi Calm Calm - N/A   Scattered Clouds
11:53 AM 57.0 °F - 21.9 °F 26% 29.70 in 10.0 mi Variable 3.5 mph - N/A   Scattered Clouds
12:53 PM 57.9 °F - 24.1 °F 27% 29.68 in 10.0 mi East 8.1 mph - N/A   Scattered Clouds
1:53 PM 55.0 °F - 24.1 °F 30% 29.68 in 10.0 mi SE 6.9 mph - N/A   Mostly Cloudy
2:53 PM 57.0 °F - 21.9 °F 26% 29.68 in 10.0 mi ENE 6.9 mph - N/A   Mostly Cloudy
3:53 PM 52.0 °F - 23.0 °F 32% 29.70 in 10.0 mi ENE 6.9 mph - N/A   Mostly Cloudy
4:53 PM 48.9 °F - 23.0 °F 36% 29.74 in 10.0 mi ENE 4.6 mph - N/A   Mostly Cloudy
5:53 PM 46.0 °F 43.1 °F 23.0 °F 40% 29.77 in 10.0 mi East 5.8 mph - N/A   Mostly Cloudy
6:53 PM 46.0 °F 42.5 °F 23.0 °F 40% 29.76 in 10.0 mi SSE 6.9 mph - N/A   Overcast
7:53 PM 42.1 °F 37.7 °F 24.1 °F 49% 29.80 in 10.0 mi SE 6.9 mph - N/A   Overcast
8:53 PM 46.9 °F - 25.0 °F 42% 29.76 in 10.0 mi South 12.7 mph - N/A   Overcast
9:53 PM 51.1 °F - 25.0 °F 36% 29.75 in 10.0 mi SSE 10.4 mph - N/A   Overcast
10:34 PM 37.4 °F 25.2 °F 24.8 °F 60% 29.92 in 9.0 mi NNE 28.8 mph 36.8 mph N/A   Overcast
10:44 PM 32.0 °F 18.9 °F 23.0 °F 69% 29.93 in 9.0 mi NNE 24.2 mph 33.4 mph N/A   Overcast
10:53 PM 30.9 °F 16.2 °F 23.0 °F 72% 29.87 in 10.0 mi NNE 29.9 mph 38.0 mph N/A   Overcast
11:16 PM 28.4 °F 13.5 °F 23.0 °F 80% 29.96 in 10.0 mi NNE 26.5 mph 34.5 mph N/A   Overcast
11:41 PM 26.6 °F 12.4 °F 24.8 °F 93% 30.00 in 5.0 mi NNE 21.9 mph 29.9 mph 0.00 in Snow Light Freezing Drizzle
11:53 PM 26.1 °F 12.3 °F 23.0 °F 88% 29.98 in 2.0 mi NE 19.6 mph 27.6 mph 0.00 in Snow Light Snow